Location: Chervonnoye
(48.6000°N, 34.4000°E)
Time: 00:52:33
(UTC+00:00)

KAITUO 1B - Pass Details

Date: 01 December 2021
Orbit: 486 x 507 km, 97.4° (Epoch: 16 January)

Event Time Altitude Azimuth Distance (km) Brightness Sun altitude
Rises 14:57:05 0° 155° (SSE) 2,590 ? -10.8°
Reaches altitude 10° 14:59:10 10° 151° (SSE) 1,714 ? -11.1°
Maximum altitude 15:02:47 57° 73° (ENE) 606 ? -11.7°
Drops below altitude 10° 15:06:28 10° 355° (N) 1,739 ? -12.3°
Sets 15:08:35 0° 351° (N) 2,631 ? -12.6°
